Weather Roundup
Issued by NWS Chicago, IL

Home | Current Version | Previous Version | Graphics & Text | Print | Product List | Glossary On
Versions: 1 2 3 4 5 6 7 8 9 10 11 12 13 14 15 16 17 18 19 20 21 22 23 24 25 26 27 28 29 30 31 32 33 34 35 36 37 38 39 40 41 42 43 44 45 46 47 48 49 50
000
NZUS59 KLOT 262012
HRRLOT

CHICAGO AREA WEATHER ROUNDUP
NATIONAL WEATHER SERVICE CHICAGO/ROMEOVILLE IL
300 PM CDT THU MAR 26 2015

NOTE: "FAIR" INDICATES FEW OR NO CLOUDS BELOW 12,000 FEET WITH NO
SIGNIFICANT WEATHER AND/OR OBSTRUCTIONS TO VISIBILITY.

* THESE STATIONS ARE NOT UNDER NWS QUALITY CONTROL. THEY ALSO MAY NOT
  REPORT WEATHER SUCH AS PRECIPITATION OR FOG.

ILZ005-006-012>014-019>023-262100-
NORTHEAST ILLINOIS

CITY           SKY/WX    TMP DP  RH WIND       PRES   REMARKS
OHARE          CLOUDY    40  23  50 NW15      29.94F
MIDWAY         PTSUNNY   44  23  43 NW15G22   29.94F
AURORA         CLOUDY    41  25  53 NW16G24   29.97S
LANSING*       PTSUNNY   44  21  40 NW12G17   29.93F
JOLIET*        CLOUDY    44  25  48 W15       29.96F
WAUKEGAN       CLOUDY    38  21  50 NW10G18   29.95R
DUPAGE AIRPORT PTSUNNY   40  22  48 NW16      29.96S
WHEELING       CLOUDY    40  23  50 NW10      29.97R
KANKAKEE*      PTSUNNY   44  31  60 W16G22    29.96R
MORRIS*        PTSUNNY   42  27  55 NW12      29.96S
LEWIS AIRPORT* PTSUNNY   43  23  45 NW15      29.96S
NORTHERLY IS     N/A     39  25  57 E5          N/A
$$

WIZ051-052-058>065-066-070>072-262100-
SOUTHEAST WISCONSIN

CITY           SKY/WX    TMP DP  RH WIND       PRES   REMARKS
MILWAUKEE      CLOUDY    36  21  54 NW15      29.96R
KENOSHA*       CLOUDY    38  23  55 NW13G18   29.95S
RACINE*        CLOUDY    37  20  50 NW10      29.96S
BURLINGTON     CLOUDY    35  21  57 NW13      29.96S WCI  26
WAUKESHA       CLOUDY    34  19  55 NW15      29.97R WCI  24
WEST BEND      CLOUDY    32  21  64 W14       29.95S WCI  22
$$

INZ001>003-010>013-019-020-262100-
NORTHWEST INDIANA

CITY           SKY/WX    TMP DP  RH WIND       PRES   REMARKS
GARY*          NOT AVBL
MICHIGAN CITY* NOT AVBL
RENSSELAER*    NOT AVBL
VALPARAISO     PTSUNNY   43  24  47 N9        29.93F
$$

LMZ740>746-262100-
SOUTHERN LAKE MICHIGAN

STATION/POSITION TIME  SKY/WX   TEMP WIND        PRES    VSBY
                                AIR  DIR/SP/G
                 (UTC)          (F)  (DEG/KT/KT) (MB)    (MI)
HARRISON CRIB    1900            36   90/  4/  5   N/A
BURNHAM HARBOR   2000            39   70/  4/  5   N/A
CALUMET HARBOR   1900            37   50/  8/  9 1013.2F
BURNS HARBOR     1900            38   40/  4/  5 1015.2F
MICHIGAN CITY    1900            36  260/  3/  4   N/A
$$

ABBREVIATIONS USED IN REMARKS
   TC - TEMPERATURE IN CELSIUS
  WCI - WIND CHILL INDEX
   HX - HEAT INDEX
  VSB - VISIBILITY
$$


USA.gov is the U.S. government's official web portal to all federal, state and local government web resources and services.